Погода в Зеренде

Казахстан     52°54′24″N   69°09′01″E
темп.,
°C
ветер,
м/с
пор.,
м/с
влажн.,
%
обл.,
%
осадки,
мм/ч
давл.,
гПа
погр.,
м
2 марта, вт
вт200:00−19з22100100 0.1 101820
03:00−20зюз239998 0.0 101820
06:00−18зюз239594 0.0 101842
09:00−16зюз129798 0.1 101863
12:00−13юз349293 0.1 1017270
15:00−10зюз359199 0.1 1016435
18:00−11юз479399 0.1 1016315
21:00−16юз499548 0.0 1016144
3 марта, ср
ср300:00−16юз5119429 0.0 1016249
03:00−18юз6149359 0.0 1016271
06:00−19ююз8159232 0.0 1017280
09:00−18ююз8159394 0.0 1016281
12:00−13ююз9179196 0.0 1015432
15:00−9юз101788100 0.0 1014595
18:00−7юз91786100 0.0 1013752
21:00−5юз81788100 0.0 1011817
4 марта, чт
чт400:00−4юз71590100 0.1 1010897
03:00−4юз81590100 0.1 1009769
06:00−3ююз91690100 0.2 1008867
09:00−2юз101790100 0.2 1006997
12:00−2юз111689100 0.3 10061040
15:00−1юз101588100 0.2 10041153
18:00−1юз81395100 0.5 1004855
21:00−3юз81491100 0.5 1005753
5 марта, пт
пт500:00−6з61292100 1.1 1008529
03:00−11зюз61293100 0.0 1010280
06:00−13юз6149069 0.1 1014270
09:00−11юз817823 0.0 1015392
12:00−8юз12218551 0.0 1015790
15:00−6юз13218999 0.1 1014780
18:00−5юз122184100 0.2 1014880
21:00−6юз122085100 0.1 1014908
6 марта, сб
сб600:00−5юз112085100 0.1 1014849
03:00−6юз10198799 0.1 1014744
06:00−6юз9178896 0.1 1014618
09:00−6юз9168982 0.1 1014575
12:00−4зюз8129190 0.1 1015735
15:00−3зюз71090100 0.2 1017773
18:00−3зюз5889100 0.2 1018618
21:00−7ююз4894100 0.0 1017177